This is the latest recevied weather packets stored in our database for station/object W1HVD. If no packets are shown the sender has not sent any weather packets the latest 10 day(s).
| Time | Temp. | Humidity | Pressure | Rain* | Wind** | Luminosity | Snow |
|---|---|---|---|---|---|---|---|
| 1777299410 | 16.11° C | 46% | 1024.7 hPa | 0 mm | - | 614 W/m² | - |
| 1777299108 | 15° C | 47% | 1024.7 hPa | 0 mm | - | 604 W/m² | - |
| 1777298805 | 15.56° C | 47% | 1024.6 hPa | 0 mm | - | 594 W/m² | - |
| 1777298500 | 15° C | 50% | 1024.6 hPa | 0 mm | - | 584 W/m² | - |
| 1777298197 | 15.56° C | 50% | 1024.6 hPa | 0 mm | - | 573 W/m² | - |
| 1777297893 | 14.44° C | 50% | 1024.7 hPa | 0 mm | - | 561 W/m² | - |
| 1777297590 | 14.44° C | 51% | 1024.5 hPa | 0 mm | - | 549 W/m² | - |
| 1777297287 | 14.44° C | 52% | 1024.4 hPa | 0 mm | - | 537 W/m² | - |
| 1777296985 | 14.44° C | 51% | 1024.4 hPa | 0 mm | - | 525 W/m² | - |
| 1777296681 | 14.44° C | 51% | 1024.4 hPa | 0 mm | - | 514 W/m² | - |
| 1777296361 | 13.89° C | 52% | 1024.5 hPa | 0 mm | - | 501 W/m² | - |
| 1777296056 | 13.89° C | 51% | 1024.5 hPa | 0 mm | - | 488 W/m² | - |
| 1777295754 | 13.33° C | 54% | 1024.3 hPa | 0 mm | - | 473 W/m² | - |
| 1777295452 | 13.33° C | 54% | 1024.3 hPa | 0 mm | - | 461 W/m² | - |
| 1777295149 | 13.33° C | 54% | 1024.4 hPa | 0 mm | - | 424 W/m² | - |
| 1777294846 | 13.33° C | 55% | 1024.3 hPa | 0 mm | - | 432 W/m² | - |
| 1777294546 | 12.78° C | 55% | 1024.3 hPa | 0 mm | - | 114 W/m² | - |
| 1777294243 | 12.78° C | 56% | 1024.1 hPa | 0 mm | - | 405 W/m² | - |
| 1777293940 | 12.22° C | 57% | 1024.1 hPa | 0 mm | - | 391 W/m² | - |
| 1777293636 | 11.67° C | 59% | 1024.1 hPa | 0 mm | - | 376 W/m² | - |
| 1777293331 | 11.11° C | 60% | 1024.2 hPa | 0 mm | - | 80 W/m² | - |
| 1777293026 | 10.56° C | 62% | 1024.1 hPa | 0 mm | - | 69 W/m² | - |
| 1777292725 | 10.56° C | 64% | 1024.2 hPa | 0 mm | - | 45 W/m² | - |
| 1777292422 | 10.56° C | 63% | 1024.2 hPa | 0 mm | - | 43 W/m² | - |
| 1777292119 | 10° C | 64% | 1024.3 hPa | 0 mm | - | 41 W/m² | - |
* Rain latest hour (hover to see other rain measurements)
** Current wind speed in m/s (hover to see current wind gust speed)